Regional Weather Roundup
Issued by NWS

Home | Current Version | Previous Version | Graphics & Text | Print | Product List | Glossary On
Versions: 1 2 3 4 5 6 7 8 9 10 11 12 13 14 15 16 17 18 19 20 21 22 23 24 25 26 27 28 29 30 31 32 33 34 35 36 37 38 39 40 41 42 43 44 45 46 47 48 49 50
000
ASUS43 KIND 070609
RWRIN

WEATHER ROUNDUP FOR INDIANA
NATIONAL WEATHER SERVICE INDIANAPOLIS IN
100 AM EST WED DEC 07 2016

NOTE: "FAIR" INDICATES FEW OR NO CLOUDS BELOW 12,000 FEET WITH NO
SIGNIFICANT WEATHER AND/OR OBSTRUCTIONS TO VISIBILITY.

* - STATION DOES NOT REPORT WEATHER SUCH AS PRECIPITATION OR FOG.

+ - STATION NOT QUALITY CONTROLLED BY THE NATIONAL WEATHER SERVICE.
    USE DATA WITH CAUTION...ESPECIALLY DEWPOINT AND RELATIVE
    HUMIDITY OBSERVATIONS.

INZ001>003-010>013-019-020-070700-
NORTHWEST INDIANA

CITY           SKY/WX    TMP DP  RH WIND       PRES   REMARKS
GARY /AIRPORT/ CLEAR     30  22  72 W9        30.00R WCI  22
KNOX *+        PTCLDY    28   5  37 W15G22    30.00R WCI  17
LA PORTE +     PTCLDY    29  26  88 W15G21    29.98R WCI  18
6HR MIN TEMP:  29; 6HR MAX TEMP:  35;

MICHIGAN CITY+ CLOUDY    30  23  74 W15G26    29.98R WCI  19
MONTICELLO +   PTCLDY    29  19  66 W10       30.02S WCI  20
6HR MIN TEMP:  29; 6HR MAX TEMP:  35;

RENSSELAER +     N/A     30  25  80 W9        30.03R WCI  22
VALPARAISO     PTCLDY    29  20  69 W18       29.99S WCI  16
6HR MIN TEMP:  29; 6HR MAX TEMP:  34;


$$

LMZ046-743>745-070700-
SOUTHERN LAKE MICHIGAN

STATION/POSITION TIME  TEMP    WIND        PRES    WAVE
                       AIR SEA DIR/SP/G            HT
                 (UTC) (F)     (DEG/KT/KT) (MB)    (FT)
BURNS HARBOR     0540   32     260/ 23/ 26 1015.2S
MICHIGAN CITY    0540   31     230/ 29/ 33   N/A

$$

INZ004-005-014>016-021>024-070700-
NORTH CENTRAL INDIANA

CITY           SKY/WX    TMP DP  RH WIND       PRES   REMARKS
GOSHEN         CLEAR     28  21  75 W16       29.96R WCI  16
6HR MIN TEMP:  28; 6HR MAX TEMP:  36;

LOGANSPORT +   CLEAR     30  23  74 W12G18    30.03S WCI  21
PERU/GRISSOM   CLEAR     29  25  84 W10       30.00R WCI  19
6HR MIN TEMP:  29; 6HR MAX TEMP:  35;

ROCHESTER +    CLEAR     32  27  80 W10G16    30.00S WCI  24
SOUTH BEND     PTCLDY    28  22  78 W18G25    29.96R WCI  15
6HR MIN TEMP:  28; 6HR MAX TEMP:  36;

WARSAW +       PTCLDY    28  21  74 W15       29.97R WCI  17

$$

INZ006>009-017-018-025>027-070700-
NORTHEAST INDIANA

CITY           SKY/WX    TMP DP  RH WIND       PRES   REMARKS
ANGOLA *+      CLOUDY    30  25  80 W12       29.92R WCI  21
AUBURN +       PTCLDY    30  23  74 W10       29.96R WCI  21
FORT WAYNE     PTCLDY    30  24  78 W10G21    29.99R WCI  21
6HR MIN TEMP:  30; 6HR MAX TEMP:  37;

HUNTINGTON +   PTCLDY    29  25  86 W13       29.99R WCI  19
6HR MIN TEMP:  29; 6HR MAX TEMP:  34;

KENDALLVILLE + MOCLDY    28  24  82 W13G21    29.94R WCI  18

$$

INZ028-029-035-036-043>045-051>053-070700-
WEST CENTRAL INDIANA

CITY           SKY/WX    TMP DP  RH WIND       PRES   REMARKS
CRAWFORDSVL +  CLEAR     28  24  88 W8        30.06R WCI  19
6HR MIN TEMP:  28; 6HR MAX TEMP:  34;

GREENCASTLE +  CLEAR     30  28  93 W3        30.06S
LAFAYETTE      CLEAR     29  22  75 W9        30.05R WCI  20
6HR MIN TEMP:  29; 6HR MAX TEMP:  35;

TERRE HAUTE    CLEAR     30  25  81 W5        30.08S WCI  25
6HR MIN TEMP:  30; 6HR MAX TEMP:  39;


$$

INZ030>032-037>040-046>048-054>057-064-065-070700-
CENTRAL INDIANA

CITY           SKY/WX    TMP DP  RH WIND       PRES   REMARKS
CP ATTERBURY + CLEAR     32  28  86 W3        30.07R
FISHERS *+     CLEAR     30  28  93 W6        30.05R WCI  24
FRANKFORT +    PTCLDY    32  27  80 NW12      30.05R WCI  23
6HR MIN TEMP:  32; 6HR MAX TEMP:  38;

GREENWOOD *+   PTCLDY    33  28  83 W3        30.05R
6HR MIN TEMP:  33; 6HR MAX TEMP:  37;

INDIANAPOLIS   CLEAR     29  25  85 W9        30.05R WCI  20
6HR MIN TEMP:  29; 6HR MAX TEMP:  37;

-EAGLE CREEK   CLEAR     31  24  75 W8        30.05R WCI  23
6HR MIN TEMP:  31; 6HR MAX TEMP:  37;

KOKOMO +       PTCLDY    30  24  78 W16       30.03R WCI  19
6HR MIN TEMP:  30; 6HR MAX TEMP:  35;

MARION +       CLEAR     30  26  84 W15       30.02R FOG     WCI  19
MT COMFORT *+  CLEAR     30  25  80 W12       30.04R WCI  21
SHELBYVILLE    PTCLDY    33  27  78 W8        30.04R WCI  26
6HR MIN TEMP:  33; 6HR MAX TEMP:  38;

ZIONSVILLE +   CLEAR     30  25  82 W9        30.05R WCI  22
6HR MIN TEMP:  30; 6HR MAX TEMP:  35;


$$

INZ033-034-041-042-049-050-058-059-070700-
EAST CENTRAL INDIANA

CITY           SKY/WX    TMP DP  RH WIND       PRES   REMARKS
MUNCIE         PTCLDY    32  27  81 W10       30.01R WCI  24
6HR MIN TEMP:  31; 6HR MAX TEMP:  36;


$$

INZ060-061-067>069-081>083-085>088-070700-
SOUTHWEST INDIANA

CITY           SKY/WX    TMP DP  RH WIND       PRES   REMARKS
EVANSVILLE     PTCLDY    36  33  89 W3        30.11S
6HR MIN TEMP:  36; 6HR MAX TEMP:  41;

HUNTINGBURG *+ CLOUDY    34  32  93 NW6       30.10S WCI  29
6HR MIN TEMP:  34; 6HR MAX TEMP:  39;

WASHINGTON +   CLEAR     33  33 100 W6        30.10S WCI  27
6HR MIN TEMP:  32; 6HR MAX TEMP:  39;


$$

INZ062-063-066-070>080-084-089>092-070700-
SOUTH CENTRAL AND SOUTHEAST INDIANA

CITY           SKY/WX    TMP DP  RH WIND       PRES   REMARKS
BLOOMINGTON    CLEAR     32  26  78 NW3       30.06R
6HR MIN TEMP:  32; 6HR MAX TEMP:  37;

MADISON *+     PTCLDY    34  32  93 W6        30.08R WCI  29
NORTH VERNON + CLEAR    N/A N/A N/A W5        30.06R
SEYMOUR +      PTCLDY    34  28  80 W5        30.07R WCI  30

$$




USA.gov is the U.S. government's official web portal to all federal, state and local government web resources and services.